EW1923 Weather Reports


time (UTC)temp
C
wind
direction
speed
KPH
gust
KPH
rain 1hr
cm
rain 24hr
cm
rain mn
cm
humidity
%
barometer
mb
20260504205103 22 0 0.0 0.0 0.00 0.03 0.03 33 1002.5
20260504205004 22 0 0.0 0.0 0.00 0.03 0.03 35 1002.6
20260504204903 22 0 0.0 0.0 0.00 0.03 0.03 35 1002.6
20260504204803 22 0 0.0 0.0 0.00 0.03 0.03 35 1002.5
20260504204704 22 0 0.0 0.0 0.00 0.03 0.03 35 1002.5
20260504204603 22 0 0.0 0.0 0.00 0.03 0.03 35 1002.5
20260504204503 22 0 0.0 0.0 0.00 0.03 0.03 34 1002.7
20260504204403 22 0 0.0 0.0 0.00 0.03 0.03 36 1002.7
20260504204203 22 0 0.0 0.0 0.00 0.03 0.03 36 1002.6
20260504204115 22 0 0.0 0.0 0.00 0.03 0.03 38 1002.6
20260504204105 22 0 0.0 0.0 0.00 0.03 0.03 37 1002.6
20260504203805 22 0 0.0 0.0 0.00 0.03 0.03 36 1002.7
20260504203705 22 0 0.0 0.0 0.00 0.03 0.03 37 1002.7
20260504203603 22 0 0.0 0.0 0.00 0.03 0.03 37 1002.7
20260504203517 22 0 0.0 0.0 0.00 0.03 0.03 37 1002.7
20260504203505 22 0 0.0 0.0 0.00 0.03 0.03 38 1002.7
20260504203405 22 0 0.0 0.0 0.00 0.03 0.03 38 1002.7
20260504203204 22 0 0.0 0.0 0.00 0.03 0.03 39 1002.7
20260504203103 22 0 0.0 0.0 0.00 0.03 0.03 35 1002.7
20260504203004 22 0 0.0 0.0 0.00 0.03 0.03 36 1002.7
20260504202904 22 0 0.0 0.0 0.00 0.03 0.03 37 1002.8
20260504202803 22 0 0.0 0.0 0.00 0.03 0.03 36 1002.8
20260504202703 22 0 0.0 0.0 0.00 0.03 0.03 36 1002.6
20260504202604 22 0 0.0 0.0 0.00 0.03 0.03 37 1002.6
20260504202503 22 0 0.0 0.0 0.00 0.03 0.03 38 1002.8
20260504202404 22 0 0.0 0.0 0.03 0.03 0.03 40 1002.8
20260504202305 22 0 0.0 0.0 0.03 0.03 0.03 37 1002.8
20260504202204 22 0 0.0 0.0 0.03 0.03 0.03 38 1002.9
20260504202104 22 0 0.0 0.0 0.03 0.03 0.03 37 1002.9
20260504202021 22 0 0.0 0.0 0.03 0.03 0.03 37 1002.9
20260504201904 22 0 0.0 0.0 0.03 0.03 0.03 37 1002.8
20260504201716 22 0 0.0 0.0 0.03 0.03 0.03 40 1002.8
20260504201705 22 0 0.0 0.0 0.03 0.03 0.03 38 1002.8
20260504201604 22 0 0.0 0.0 0.03 0.03 0.03 39 1002.9
20260504201403 22 0 0.0 0.0 0.03 0.03 0.03 35 1003.0
20260504201305 22 0 0.0 0.0 0.03 0.03 0.03 36 1003.0
20260504201204 22 0 0.0 0.0 0.03 0.03 0.03 36 1003.0
20260504201105 22 0 0.0 0.0 0.03 0.03 0.03 34 1003.0
20260504201004 22 0 0.0 0.0 0.03 0.03 0.03 35 1003.0
20260504200905 22 0 0.0 0.0 0.03 0.03 0.03 35 1003.0
20260504200803 22 0 0.0 0.0 0.03 0.03 0.03 36 1003.0
20260504200703 22 0 0.0 0.0 0.03 0.03 0.03 35 1003.0
20260504200503 22 0 0.0 0.0 0.03 0.03 0.03 37 1003.0
20260504200403 22 0 0.0 0.0 0.03 0.03 0.03 39 1003.0
20260504200316 22 0 0.0 0.0 0.03 0.03 0.03 38 1003.0
20260504200304 22 0 0.0 0.0 0.03 0.03 0.03 38 1002.9
20260504200204 22 0 0.0 0.0 0.03 0.03 0.03 38 1002.9
20260504200003 22 0 0.0 0.0 0.03 0.03 0.03 37 1003.0
20260504195904 22 0 0.0 0.0 0.03 0.03 0.03 37 1003.1
20260504195804 22 0 0.0 0.0 0.03 0.03 0.03 36 1003.1
20260504195704 22 0 0.0 0.0 0.03 0.03 0.03 37 1003.1
20260504195604 22 0 0.0 0.0 0.03 0.03 0.03 39 1003.2
20260504195405 22 0 0.0 0.0 0.03 0.03 0.03 38 1003.2
20260504195305 22 0 0.0 0.0 0.03 0.03 0.03 39 1003.2
20260504195205 22 0 0.0 0.0 0.03 0.03 0.03 38 1003.2
20260504195105 22 0 0.0 0.0 0.03 0.03 0.03 41 1003.2
20260504195004 22 0 0.0 0.0 0.03 0.03 0.03 40 1003.2
20260504194904 22 0 0.0 0.0 0.03 0.03 0.03 37 1003.2
20260504194805 22 0 0.0 0.0 0.03 0.03 0.03 39 1003.2
20260504194604 22 0 0.0 0.0 0.03 0.03 0.03 36 1003.3
20260504194504 22 0 0.0 0.0 0.03 0.03 0.03 38 1003.3
20260504194405 22 0 0.0 0.0 0.03 0.03 0.03 40 1003.3
20260504194304 22 0 0.0 0.0 0.03 0.03 0.03 39 1003.3
20260504194204 22 0 0.0 0.0 0.03 0.03 0.03 40 1003.3
20260504194104 22 0 0.0 0.0 0.03 0.03 0.03 43 1003.5
20260504194003 22 0 0.0 0.0 0.03 0.03 0.03 42 1003.4
20260504193903 22 0 0.0 0.0 0.03 0.03 0.03 44 1003.4
20260504193803 22 0 0.0 0.0 0.03 0.03 0.03 41 1003.5
20260504193703 22 0 0.0 0.0 0.03 0.03 0.03 40 1003.5
20260504193604 22 0 0.0 0.0 0.03 0.03 0.03 40 1003.5
20260504193503 22 0 0.0 0.0 0.03 0.03 0.03 41 1003.5
20260504193403 22 0 0.0 0.0 0.03 0.03 0.03 41 1003.5
20260504193303 22 0 0.0 0.0 0.03 0.03 0.03 41 1003.6
20260504193203 22 0 0.0 0.0 0.03 0.03 0.03 42 1003.6
20260504193117 22 0 0.0 0.0 0.03 0.03 0.03 42 1003.6
20260504193104 22 0 0.0 0.0 0.03 0.03 0.03 41 1003.6
20260504192804 22 0 0.0 0.0 0.03 0.03 0.03 41 1003.6
20260504192705 22 0 0.0 0.0 0.03 0.03 0.03 43 1003.7
20260504192604 22 0 0.0 0.0 0.03 0.03 0.03 42 1003.7
20260504192505 22 0 0.0 0.0 0.03 0.03 0.03 46 1003.7
20260504192405 22 0 0.0 0.0 0.00 0.00 0.03 42 1003.7
20260504192304 22 0 0.0 0.0 0.00 0.00 0.00 43 1003.8
20260504192204 22 0 0.0 0.0 0.00 0.00 0.00 45 1003.7
20260504192103 22 0 0.0 0.0 0.00 0.00 0.00 41 1003.7
20260504192003 22 0 0.0 0.0 0.00 0.00 0.00 40 1003.8
20260504191903 22 0 0.0 0.0 0.00 0.00 0.00 42 1003.8
20260504191803 22 0 0.0 0.0 0.00 0.00 0.00 43 1003.7
20260504191703 22 0 0.0 0.0 0.00 0.00 0.00 43 1003.7
20260504191603 22 0 0.0 0.0 0.00 0.00 0.00 41 1003.7
20260504191504 22 0 0.0 0.0 0.00 0.00 0.00 43 1003.9
20260504191304 22 0 0.0 0.0 0.00 0.00 0.00 42 1003.8
20260504191204 22 0 0.0 0.0 0.00 0.00 0.00 43 1003.8
20260504191104 22 0 0.0 0.0 0.00 0.00 0.00 43 1003.8
20260504191003 22 0 0.0 0.0 0.00 0.00 0.00 44 1003.8
20260504190904 22 0 0.0 0.0 0.00 0.00 0.00 43 1003.9
20260504190803 22 0 0.0 0.0 0.00 0.00 0.00 42 1003.9
20260504190704 22 0 0.0 0.0 0.00 0.00 0.00 42 1003.9
20260504190604 22 0 0.0 0.0 0.00 0.00 0.00 43 1003.9
20260504190505 22 0 0.0 0.0 0.00 0.00 0.00 42 1003.8
20260504190404 22 0 0.0 0.0 0.00 0.00 0.00 42 1003.8
20260504190305 22 0 0.0 0.0 0.00 0.00 0.00 42 1003.8
20260504190205 22 0 0.0 0.0 0.00 0.00 0.00 42 1003.9
20260504190004 22 0 0.0 0.0 0.00 0.00 0.00 41 1003.9
20260504185904 22 0 0.0 0.0 0.00 0.00 0.00 41 1003.9
20260504185803 22 0 0.0 0.0 0.00 0.00 0.00 43 1003.9
20260504185705 22 0 0.0 0.0 0.00 0.00 0.00 42 1004.0
20260504185603 22 0 0.0 0.0 0.00 0.00 0.00 41 1003.8
20260504185503 22 0 0.0 0.0 0.00 0.00 0.00 41 1003.8
20260504185404 22 0 0.0 0.0 0.00 0.00 0.00 42 1004.0
20260504185305 22 0 0.0 0.0 0.00 0.00 0.00 45 1004.0
20260504185203 22 0 0.0 0.0 0.00 0.00 0.00 42 1003.9
20260504185104 22 0 0.0 0.0 0.00 0.00 0.00 41 1004.0
20260504184903 22 0 0.0 0.0 0.00 0.00 0.00 43 1003.9
20260504184803 22 0 0.0 0.0 0.00 0.00 0.00 43 1003.9
20260504184703 22 0 0.0 0.0 0.00 0.00 0.00 41 1004.0
20260504184603 22 0 0.0 0.0 0.00 0.00 0.00 41 1004.0
20260504184504 21 0 0.0 0.0 0.00 0.00 0.00 41 1004.0
20260504184405 22 0 0.0 0.0 0.00 0.00 0.00 40 1004.1
20260504184305 22 0 0.0 0.0 0.00 0.00 0.00 42 1004.1
20260504184205 22 0 0.0 0.0 0.00 0.00 0.00 42 1004.1
20260504184105 22 0 0.0 0.0 0.00 0.00 0.00 41 1004.0
20260504184005 22 0 0.0 0.0 0.00 0.00 0.00 42 1004.0
20260504183904 22 0 0.0 0.0 0.00 0.00 0.00 39 1004.0
20260504183805 22 0 0.0 0.0 0.00 0.00 0.00 44 1004.1
20260504183716 22 0 0.0 0.0 0.00 0.00 0.00 44 1004.1
20260504183604 22 0 0.0 0.0 0.00 0.00 0.00 43 1004.1
20260504183405 22 0 0.0 0.0 0.00 0.00 0.00 44 1004.1
20260504183303 22 0 0.0 0.0 0.00 0.00 0.00 44 1004.2
20260504183204 22 0 0.0 0.0 0.00 0.00 0.00 43 1004.2
20260504183103 22 0 0.0 0.0 0.00 0.00 0.00 43 1004.1
20260504183004 22 0 0.0 0.0 0.00 0.00 0.00 43 1004.1
20260504182903 22 0 0.0 0.0 0.00 0.00 0.00 43 1004.2
20260504182804 22 0 0.0 0.0 0.00 0.00 0.00 44 1004.3
20260504182704 22 0 0.0 0.0 0.00 0.00 0.00 43 1004.3
20260504182604 22 0 0.0 0.0 0.00 0.00 0.00 43 1004.3
20260504182503 22 0 0.0 0.0 0.00 0.00 0.00 43 1004.3
20260504182403 22 0 0.0 0.0 0.00 0.00 0.00 45 1004.3
20260504182304 22 0 0.0 0.0 0.00 0.00 0.00 44 1004.2
20260504182204 22 0 0.0 0.0 0.00 0.00 0.00 42 1004.2
20260504182104 22 0 0.0 0.0 0.00 0.00 0.00 43 1004.4
20260504182004 22 0 0.0 0.0 0.00 0.00 0.00 42 1004.4
20260504181905 22 0 0.0 0.0 0.00 0.00 0.00 42 1004.4
20260504181805 22 0 0.0 0.0 0.00 0.00 0.00 44 1004.3
20260504181705 22 0 0.0 0.0 0.00 0.00 0.00 47 1004.3
20260504181605 22 0 0.0 0.0 0.00 0.00 0.00 47 1004.4
20260504181503 21 0 0.0 0.0 0.00 0.00 0.00 43 1004.3
20260504181404 21 0 0.0 0.0 0.00 0.00 0.00 44 1004.3
20260504181303 21 0 0.0 0.0 0.00 0.00 0.00 46 1004.4
20260504181203 21 0 0.0 0.0 0.00 0.00 0.00 45 1004.4
20260504181103 21 0 0.0 0.0 0.00 0.00 0.00 48 1004.4
20260504181003 21 0 0.0 0.0 0.00 0.00 0.00 47 1004.5
20260504180916 21 0 0.0 0.0 0.00 0.00 0.00 45 1004.5
20260504180803 21 0 0.0 0.0 0.00 0.00 0.00 45 1004.5
20260504180604 21 0 0.0 0.0 0.00 0.00 0.00 44 1004.5
20260504180503 21 0 0.0 0.0 0.00 0.00 0.00 45 1004.6
20260504180403 21 0 0.0 0.0 0.00 0.00 0.00 47 1004.6
20260504180304 21 0 0.0 0.0 0.00 0.00 0.00 44 1004.6
20260504180104 21 0 0.0 0.0 0.00 0.00 0.00 44 1004.6
20260504180004 21 0 0.0 0.0 0.00 0.00 0.00 42 1004.5
20260504175905 21 0 0.0 0.0 0.00 0.00 0.00 45 1004.5
20260504175805 21 0 0.0 0.0 0.00 0.00 0.00 45 1004.7
20260504175705 21 0 0.0 0.0 0.00 0.00 0.00 46 1004.7
20260504175504 21 0 0.0 0.0 0.00 0.00 0.00 47 1004.8
20260504175403 21 0 0.0 0.0 0.00 0.00 0.00 46 1004.8
20260504175304 21 0 0.0 0.0 0.00 0.00 0.00 47 1004.7
20260504175204 21 0 0.0 0.0 0.00 0.00 0.00 48 1004.7
20260504175103 21 0 0.0 0.0 0.00 0.00 0.00 47 1004.7
20260504175004 21 0 0.0 0.0 0.00 0.00 0.00 47 1004.7
20260504174803 21 0 0.0 0.0 0.00 0.00 0.00 47 1004.7
20260504174703 21 0 0.0 0.0 0.00 0.00 0.00 46 1004.8
20260504174603 21 0 0.0 0.0 0.00 0.00 0.00 46 1004.8
20260504174504 21 0 0.0 0.0 0.00 0.00 0.00 49 1004.8
20260504174403 20 0 0.0 0.0 0.00 0.00 0.00 49 1004.8
20260504174304 20 0 0.0 0.0 0.00 0.00 0.00 48 1004.8
20260504174204 20 0 0.0 0.0 0.00 0.00 0.00 47 1004.8
20260504174104 20 0 0.0 0.0 0.00 0.00 0.00 49 1004.8
20260504174005 20 0 0.0 0.0 0.00 0.00 0.00 48 1004.9
20260504173704 20 0 0.0 0.0 0.00 0.00 0.00 49 1004.8
20260504173605 20 0 0.0 0.0 0.00 0.00 0.00 49 1004.8
20260504173315 20 0 0.0 0.0 0.00 0.00 0.00 50 1004.8
20260504173304 20 0 0.0 0.0 0.00 0.00 0.00 48 1004.8
20260504173204 20 0 0.0 0.0 0.00 0.00 0.00 50 1004.8
20260504172905 20 0 0.0 0.0 0.00 0.00 0.00 48 1004.8
20260504172805 20 0 0.0 0.0 0.00 0.00 0.00 47 1004.8
20260504172703 20 0 0.0 0.0 0.00 0.00 0.00 48 1004.8
20260504172603 20 0 0.0 0.0 0.00 0.00 0.00 48 1004.9
20260504172503 20 0 0.0 0.0 0.00 0.00 0.00 49 1004.9
20260504172304 20 0 0.0 0.0 0.00 0.00 0.00 49 1004.9
20260504172204 20 0 0.0 0.0 0.00 0.00 0.00 49 1004.9
20260504172103 20 0 0.0 0.0 0.00 0.00 0.00 47 1004.9
20260504172004 20 0 0.0 0.0 0.00 0.00 0.00 48 1004.9
20260504171903 20 0 0.0 0.0 0.00 0.00 0.00 48 1004.9
20260504171804 20 0 0.0 0.0 0.00 0.00 0.00 49 1004.9
20260504171713 20 0 0.0 0.0 0.00 0.00 0.00 51 1004.9
20260504171515 20 0 0.0 0.0 0.00 0.00 0.00 50 1004.9
20260504171405 20 0 0.0 0.0 0.00 0.00 0.00 50 1004.9
20260504171105 20 0 0.0 0.0 0.00 0.00 0.00 50 1005.1
20260504171003 20 0 0.0 0.0 0.00 0.00 0.00 50 1005.1
20260504170905 20 0 0.0 0.0 0.00 0.00 0.00 50 1005.0
20260504170803 19 0 0.0 0.0 0.00 0.00 0.00 48 1005.0
20260504170703 19 0 0.0 0.0 0.00 0.00 0.00 50 1005.0
20260504170604 19 0 0.0 0.0 0.00 0.00 0.00 50 1005.0
20260504170503 19 0 0.0 0.0 0.00 0.00 0.00 50 1005.0
20260504170403 19 0 0.0 0.0 0.00 0.00 0.00 48 1005.0
20260504170304 19 0 0.0 0.0 0.00 0.00 0.00 47 1005.1
20260504170204 19 0 0.0 0.0 0.00 0.00 0.00 50 1005.1
20260504170104 19 0 0.0 0.0 0.00 0.00 0.00 51 1005.0
20260504160403 18 0 0.0 0.0 0.00 0.00 0.00 49 1005.6
20260504160303 18 0 0.0 0.0 0.00 0.00 0.00 51 1005.6
20260504160203 18 0 0.0 0.0 0.00 0.00 0.00 49 1005.6
20260504160105 18 0 0.0 0.0 0.00 0.00 0.00 52 1005.6
20260504151105 17 0 0.0 0.0 0.00 0.00 0.00 52 1006.1
20260504151004 17 0 0.0 0.0 0.00 0.00 0.00 53 1006.1
20260504150903 17 0 0.0 0.0 0.00 0.00 0.00 53 1006.0
20260504150804 17 0 0.0 0.0 0.00 0.00 0.00 51 1006.0
20260504150705 17 0 0.0 0.0 0.00 0.00 0.00 53 1006.1
20260504150605 17 0 0.0 0.0 0.00 0.00 0.00 52 1006.1
20260504150504 17 0 0.0 0.0 0.00 0.00 0.00 52 1006.1
20260504150303 17 0 0.0 0.0 0.00 0.00 0.00 52 1006.2
20260504150208 16 0 0.0 0.0 0.00 0.00 0.00 52 1006.1
20260504150103 16 0 0.0 0.0 0.00 0.00 0.00 54 1006.1
20260504141314 16 0 0.0 0.0 0.00 0.00 0.00 54 1006.0
20260504141203 16 0 0.0 0.0 0.00 0.00 0.00 53 1006.0
20260504141004 15 0 0.0 0.0 0.00 0.00 0.00 53 1006.1
20260504140903 15 0 0.0 0.0 0.00 0.00 0.00 53 1006.1
20260504140805 15 0 0.0 0.0 0.00 0.00 0.00 53 1006.1
20260504140605 15 0 0.0 0.0 0.00 0.00 0.00 54 1006.1
20260504140503 15 0 0.0 0.0 0.00 0.00 0.00 53 1006.1
20260504140404 15 0 0.0 0.0 0.00 0.00 0.00 52 1006.1
20260504140304 15 0 0.0 0.0 0.00 0.00 0.00 53 1006.1
20260504140205 15 0 0.0 0.0 0.00 0.00 0.00 52 1006.2
20260504140103 15 0 0.0 0.0 0.00 0.00 0.00 52 1006.2
20260504130804 14 0 0.0 0.0 0.00 0.00 0.00 53 1006.3
20260504130703 14 0 0.0 0.0 0.00 0.00 0.00 54 1006.3
20260504130603 14 0 0.0 0.0 0.00 0.00 0.00 53 1006.4
20260504130503 14 0 0.0 0.0 0.00 0.00 0.00 53 1006.4
20260504130417 14 0 0.0 0.0 0.00 0.00 0.00 53 1006.3
20260504130403 14 0 0.0 0.0 0.00 0.00 0.00 52 1006.3
20260504130303 14 0 0.0 0.0 0.00 0.00 0.00 53 1006.3
20260504120305 12 0 0.0 0.0 0.00 0.00 0.00 56 1006.4
20260504120103 12 0 0.0 0.0 0.00 0.00 0.00 57 1006.4
20260504110703 11 0 0.0 0.0 0.00 0.00 0.00 58 1006.5
20260504110604 11 0 0.0 0.0 0.00 0.00 0.00 58 1006.5
20260504110503 11 0 0.0 0.0 0.00 0.00 0.00 58 1006.4
20260504110304 11 0 0.0 0.0 0.00 0.00 0.00 58 1006.4
20260504110204 11 0 0.0 0.0 0.00 0.00 0.00 58 1006.4
20260504110103 11 0 0.0 0.0 0.00 0.00 0.00 58 1006.4
20260504100604 11 0 0.0 0.0 0.00 0.00 0.00 57 1006.1
20260504100503 11 0 0.0 0.0 0.00 0.00 0.00 57 1006.1
20260504100403 11 0 0.0 0.0 0.00 0.00 0.00 57 1006.1
20260504100305 11 0 0.0 0.0 0.00 0.00 0.00 57 1006.1
20260504100203 11 0 0.0 0.0 0.00 0.00 0.00 57 1006.2
20260504100103 11 0 0.0 0.0 0.00 0.00 0.00 56 1006.2
20260504082005 10 0 0.0 0.0 0.00 0.00 0.00 58 1006.9
20260504081905 10 0 0.0 0.0 0.00 0.00 0.00 58 1006.9
20260504081804 10 0 0.0 0.0 0.00 0.00 0.00 58 1007.0
20260504081705 10 0 0.0 0.0 0.00 0.00 0.00 58 1007.0
20260504081604 10 0 0.0 0.0 0.00 0.00 0.00 58 1007.0
20260504081505 10 0 0.0 0.0 0.00 0.00 0.00 58 1007.0
20260504081305 10 0 0.0 0.0 0.00 0.00 0.00 58 1006.9
20260504081204 10 0 0.0 0.0 0.00 0.00 0.00 58 1006.9
20260504081103 10 0 0.0 0.0 0.00 0.00 0.00 58 1007.0
20260504081004 10 0 0.0 0.0 0.00 0.00 0.00 58 1007.0
20260504080903 10 0 0.0 0.0 0.00 0.00 0.00 58 1007.0
20260504080803 10 0 0.0 0.0 0.00 0.00 0.00 58 1007.0
20260504080704 10 0 0.0 0.0 0.00 0.00 0.00 58 1007.0
20260504080604 10 0 0.0 0.0 0.00 0.00 0.00 58 1007.0
20260504080403 10 0 0.0 0.0 0.00 0.00 0.00 58 1007.0
20260504080305 10 0 0.0 0.0 0.00 0.00 0.00 58 1007.0
20260504080204 10 0 0.0 0.0 0.00 0.00 0.00 58 1007.0
20260504080105 10 0 0.0 0.0 0.00 0.00 0.00 58 1007.1
20260504070404 9 0 0.0 0.0 0.00 0.00 0.00 59 1007.7
20260504070305 9 0 0.0 0.0 0.00 0.00 0.00 59 1007.7
20260504070204 9 0 0.0 0.0 0.00 0.00 0.00 59 1007.8
20260504070105 9 0 0.0 0.0 0.00 0.00 0.00 59 1007.7
20260504060204 10 0 0.0 0.0 0.00 0.00 0.00 58 1008.1
20260504050705 10 0 0.0 0.0 0.00 0.00 0.00 55 1008.5
20260504050604 10 0 0.0 0.0 0.00 0.00 0.00 56 1008.5
20260504050403 10 0 0.0 0.0 0.00 0.00 0.00 55 1008.5
20260504050303 10 0 0.0 0.0 0.00 0.00 0.00 56 1008.4
20260504050205 10 0 0.0 0.0 0.00 0.00 0.00 56 1008.4
20260504050103 10 0 0.0 0.0 0.00 0.00 0.00 55 1008.4
20260504045804 10 0 0.0 0.0 0.00 0.00 0.00 56 1008.5
20260504045703 10 0 0.0 0.0 0.00 0.00 0.00 56 1008.4
20260504045603 10 0 0.0 0.0 0.00 0.00 0.00 55 1008.4
20260504045504 11 0 0.0 0.0 0.00 0.00 0.00 55 1008.4
20260504045304 11 0 0.0 0.0 0.00 0.00 0.00 55 1008.4
20260504045203 11 0 0.0 0.0 0.00 0.00 0.00 55 1008.4
20260504045005 11 0 0.0 0.0 0.00 0.00 0.00 56 1008.4
20260504044905 11 0 0.0 0.0 0.00 0.00 0.00 55 1008.4
20260504044804 11 0 0.0 0.0 0.00 0.00 0.00 55 1008.4
20260504044704 11 0 0.0 0.0 0.00 0.00 0.00 55 1008.4
20260504044605 11 0 0.0 0.0 0.00 0.00 0.00 55 1008.4
20260504044504 11 0 0.0 0.0 0.00 0.00 0.00 55 1008.4
20260504044404 11 0 0.0 0.0 0.00 0.00 0.00 55 1008.3
20260504044303 11 0 0.0 0.0 0.00 0.00 0.00 55 1008.3
20260504044205 11 0 0.0 0.0 0.00 0.00 0.00 54 1008.2
20260504044104 11 0 0.0 0.0 0.00 0.00 0.00 55 1008.2
20260504044005 11 0 0.0 0.0 0.00 0.00 0.00 54 1008.3
20260504043904 11 0 0.0 0.0 0.00 0.00 0.00 54 1008.3
20260504043803 11 0 0.0 0.0 0.00 0.00 0.00 54 1008.3
20260504043604 11 0 0.0 0.0 0.00 0.00 0.00 55 1008.3
20260504043503 11 0 0.0 0.0 0.00 0.00 0.00 54 1008.3
20260504043404 11 0 0.0 0.0 0.00 0.00 0.00 55 1008.3
20260504043303 11 0 0.0 0.0 0.00 0.00 0.00 54 1008.3
20260504043004 11 0 0.0 0.0 0.00 0.00 0.00 54 1008.3
20260504042903 11 0 0.0 0.0 0.00 0.00 0.00 54 1008.3
20260504042804 11 0 0.0 0.0 0.00 0.00 0.00 54 1008.3
20260504042704 11 0 0.0 0.0 0.00 0.00 0.00 54 1008.3
20260504042503 11 0 0.0 0.0 0.00 0.00 0.00 53 1008.3
20260504042403 11 0 0.0 0.0 0.00 0.00 0.00 53 1008.2
20260504042304 11 0 0.0 0.0 0.00 0.00 0.00 53 1008.2
20260504042103 11 0 0.0 0.0 0.00 0.00 0.00 53 1008.3
20260504042004 11 0 0.0 0.0 0.00 0.00 0.00 53 1008.3
20260504041904 11 0 0.0 0.0 0.00 0.00 0.00 53 1008.3
20260504041716 11 0 0.0 0.0 0.00 0.00 0.00 53 1008.3
20260504041605 11 0 0.0 0.0 0.00 0.00 0.00 53 1008.3
20260504041514 11 0 0.0 0.0 0.00 0.00 0.00 53 1008.3
20260504041405 11 0 0.0 0.0 0.00 0.00 0.00 52 1008.3
20260504041204 11 0 0.0 0.0 0.00 0.00 0.00 52 1008.3
20260504041103 11 0 0.0 0.0 0.00 0.00 0.00 52 1008.3
20260504041005 11 0 0.0 0.0 0.00 0.00 0.00 52 1008.3
20260504040904 11 0 0.0 0.0 0.00 0.00 0.00 51 1008.3
20260504040805 11 0 0.0 0.0 0.00 0.00 0.00 51 1008.2
20260504040703 11 0 0.0 0.0 0.00 0.00 0.00 52 1008.2
20260504040603 11 0 0.0 0.0 0.00 0.00 0.00 51 1008.3
20260504040514 11 0 0.0 0.0 0.00 0.00 0.00 51 1008.3
20260504040204 11 0 0.0 0.0 0.00 0.00 0.00 51 1008.3
20260504040104 11 0 0.0 0.0 0.00 0.00 0.00 51 1008.3
20260504040005 11 0 0.0 0.0 0.00 0.00 0.00 51 1008.3
20260504035916 11 0 0.0 0.0 0.00 0.00 0.00 52 1008.3
20260504035805 11 0 0.0 0.0 0.00 0.00 0.00 51 1008.4
20260504035713 11 0 0.0 0.0 0.00 0.00 0.00 51 1008.4
20260504035604 12 0 0.0 0.0 0.00 0.00 0.00 51 1008.3
20260504035404 12 0 0.0 0.0 0.00 0.00 0.00 51 1008.4
20260504035305 12 0 0.0 0.0 0.00 0.00 0.00 51 1008.3
20260504035204 12 0 0.0 0.0 0.00 0.00 0.00 51 1008.3
20260504035103 12 0 0.0 0.0 0.00 0.00 0.00 51 1008.4
20260504035003 12 0 0.0 0.0 0.00 0.00 0.00 51 1008.4
20260504034903 12 0 0.0 0.0 0.00 0.00 0.00 50 1008.4
20260504034703 12 0 0.0 0.0 0.00 0.00 0.00 50 1008.4
20260504034603 12 0 0.0 0.0 0.00 0.00 0.00 50 1008.3
20260504034503 12 0 0.0 0.0 0.00 0.00 0.00 50 1008.4
20260504034403 12 0 0.0 0.0 0.00 0.00 0.00 50 1008.4
20260504034303 12 0 0.0 0.0 0.00 0.00 0.00 50 1008.4
20260504034203 12 0 0.0 0.0 0.00 0.00 0.00 50 1008.4
20260504034104 12 0 0.0 0.0 0.00 0.00 0.00 50 1008.4
20260504034004 12 0 0.0 0.0 0.00 0.00 0.00 50 1008.4
20260504033904 12 0 0.0 0.0 0.00 0.00 0.00 50 1008.4
20260504033803 12 0 0.0 0.0 0.00 0.00 0.00 49 1008.4
20260504033604 12 0 0.0 0.0 0.00 0.00 0.00 50 1008.4
20260504033504 12 0 0.0 0.0 0.00 0.00 0.00 49 1008.4
20260504033405 12 0 0.0 0.0 0.00 0.00 0.00 49 1008.4
20260504033305 12 0 0.0 0.0 0.00 0.00 0.00 49 1008.4
20260504033203 12 0 0.0 0.0 0.00 0.00 0.00 49 1008.4
20260504033004 12 0 0.0 0.0 0.00 0.00 0.00 49 1008.4
20260504032905 12 0 0.0 0.0 0.00 0.00 0.00 49 1008.4
20260504032803 12 0 0.0 0.0 0.00 0.00 0.00 49 1008.4
20260504032703 12 0 0.0 0.0 0.00 0.00 0.00 49 1008.4
20260504032603 12 0 0.0 0.0 0.00 0.00 0.00 49 1008.4
20260504032504 12 0 0.0 0.0 0.00 0.00 0.00 49 1008.4
20260504032203 12 0 0.0 0.0 0.00 0.00 0.00 49 1008.4
20260504032104 12 0 0.0 0.0 0.00 0.00 0.00 49 1008.4
20260504032004 12 0 0.0 0.0 0.00 0.00 0.00 49 1008.4
20260504031904 12 0 0.0 0.0 0.00 0.00 0.00 49 1008.4
20260504031804 12 0 0.0 0.0 0.00 0.00 0.00 48 1008.4
20260504031605 12 0 0.0 0.0 0.00 0.00 0.00 49 1008.4
20260504031505 12 0 0.0 0.0 0.00 0.00 0.00 49 1008.4
20260504031405 12 0 0.0 0.0 0.00 0.00 0.00 48 1008.4
20260504031303 12 0 0.0 0.0 0.00 0.00 0.00 48 1008.4
20260504031215 12 0 0.0 0.0 0.00 0.00 0.00 48 1008.4
20260504031104 12 0 0.0 0.0 0.00 0.00 0.00 49 1008.4
20260504030903 12 0 0.0 0.0 0.00 0.00 0.00 48 1008.4
20260504030803 12 0 0.0 0.0 0.00 0.00 0.00 48 1008.4
20260504030705 12 0 0.0 0.0 0.00 0.00 0.00 48 1008.3
20260504030603 12 0 0.0 0.0 0.00 0.00 0.00 49 1008.4
20260504030503 12 0 0.0 0.0 0.00 0.00 0.00 49 1008.4
20260504030403 12 0 0.0 0.0 0.00 0.00 0.00 48 1008.4
20260504030303 12 0 0.0 0.0 0.00 0.00 0.00 48 1008.4
20260504030216 12 0 0.0 0.0 0.00 0.00 0.00 48 1008.5
20260504025903 12 0 0.0 0.0 0.00 0.00 0.00 49 1008.4
20260504025804 12 0 0.0 0.0 0.00 0.00 0.00 49 1008.4
20260504025704 12 0 0.0 0.0 0.00 0.00 0.00 49 1008.4
20260504025604 12 0 0.0 0.0 0.00 0.00 0.00 49 1008.3
20260504025504 12 0 0.0 0.0 0.00 0.00 0.00 49 1008.3
20260504025404 12 0 0.0 0.0 0.00 0.00 0.00 49 1008.4
20260504025304 12 0 0.0 0.0 0.00 0.00 0.00 49 1008.4
20260504025105 12 0 0.0 0.0 0.00 0.00 0.00 48 1008.5
20260504025004 12 0 0.0 0.0 0.00 0.00 0.00 49 1008.5
20260504024803 12 0 0.0 0.0 0.00 0.00 0.00 49 1008.5
20260504024703 12 0 0.0 0.0 0.00 0.00 0.00 49 1008.5
20260504024605 12 0 0.0 0.0 0.00 0.00 0.00 49 1008.5
20260504024405 12 0 0.0 0.0 0.00 0.00 0.00 49 1008.5
20260504024304 12 0 0.0 0.0 0.00 0.00 0.00 49 1008.4
20260504024203 12 0 0.0 0.0 0.00 0.00 0.00 49 1008.4
20260504024104 12 0 0.0 0.0 0.00 0.00 0.00 49 1008.5
20260504024005 12 0 0.0 0.0 0.00 0.00 0.00 49 1008.5
20260504023904 12 0 0.0 0.0 0.00 0.00 0.00 49 1008.6
20260504023803 12 0 0.0 0.0 0.00 0.00 0.00 49 1008.4
20260504023704 12 0 0.0 0.0 0.00 0.00 0.00 50 1008.4
20260504023604 12 0 0.0 0.0 0.00 0.00 0.00 49 1008.6
20260504023504 12 0 0.0 0.0 0.00 0.00 0.00 49 1008.6
20260504023404 12 0 0.0 0.0 0.00 0.00 0.00 49 1008.6
20260504023304 12 0 0.0 0.0 0.00 0.00 0.00 49 1008.7
20260504023205 12 0 0.0 0.0 0.00 0.00 0.00 49 1008.7
20260504023117 12 0 0.0 0.0 0.00 0.00 0.00 49 1008.6
20260504023105 12 0 0.0 0.0 0.00 0.00 0.00 50 1008.6
20260504023004 12 0 0.0 0.0 0.00 0.00 0.00 49 1008.7
20260504022805 12 0 0.0 0.0 0.00 0.00 0.00 49 1008.7
20260504022703 12 0 0.0 0.0 0.00 0.00 0.00 49 1008.7
20260504022604 12 0 0.0 0.0 0.00 0.00 0.00 51 1008.7
20260504022504 12 0 0.0 0.0 0.00 0.00 0.00 49 1008.7
20260504022404 12 0 0.0 0.0 0.00 0.00 0.00 50 1008.7
20260504022304 12 0 0.0 0.0 0.00 0.00 0.00 50 1008.7
20260504022104 12 0 0.0 0.0 0.00 0.00 0.00 49 1008.7
20260504022004 12 0 0.0 0.0 0.00 0.00 0.00 50 1008.6
20260504021904 12 0 0.0 0.0 0.00 0.00 0.00 49 1008.6
20260504021804 12 0 0.0 0.0 0.00 0.00 0.00 50 1008.7
20260504021703 12 0 0.0 0.0 0.00 0.00 0.00 50 1008.6
20260504021605 12 0 0.0 0.0 0.00 0.00 0.00 50 1008.6
20260504021504 12 0 0.0 0.0 0.00 0.00 0.00 50 1008.6
20260504021404 12 0 0.0 0.0 0.00 0.00 0.00 50 1008.6
20260504021304 12 0 0.0 0.0 0.00 0.00 0.00 50 1008.7
20260504021205 12 0 0.0 0.0 0.00 0.00 0.00 51 1008.7
20260504021105 12 0 0.0 0.0 0.00 0.00 0.00 51 1008.7
20260504021004 12 0 0.0 0.0 0.00 0.00 0.00 50 1008.7
20260504020905 12 0 0.0 0.0 0.00 0.00 0.00 50 1008.7
20260504020803 12 0 0.0 0.0 0.00 0.00 0.00 51 1008.7
20260504020703 12 0 0.0 0.0 0.00 0.00 0.00 51 1008.7
20260504020605 12 0 0.0 0.0 0.00 0.00 0.00 50 1008.7
20260504020504 12 0 0.0 0.0 0.00 0.00 0.00 51 1008.7
20260504020414 12 0 0.0 0.0 0.00 0.00 0.00 51 1008.7
20260504020403 12 0 0.0 0.0 0.00 0.00 0.00 51 1008.6
20260504020103 12 0 0.0 0.0 0.00 0.00 0.00 51 1008.6
20260504020003 12 0 0.0 0.0 0.00 0.00 0.00 51 1008.7
20260504015703 12 0 0.0 0.0 0.00 0.00 0.00 51 1008.7
20260504015604 12 0 0.0 0.0 0.00 0.00 0.00 51 1008.7
20260504015505 12 0 0.0 0.0 0.00 0.00 0.00 52 1008.6
20260504015305 12 0 0.0 0.0 0.00 0.00 0.00 51 1008.7
20260504015205 12 0 0.0 0.0 0.00 0.00 0.00 52 1008.7
20260504015104 12 0 0.0 0.0 0.00 0.00 0.00 53 1008.7
20260504015014 12 0 0.0 0.0 0.00 0.00 0.00 53 1008.7
20260504015004 12 0 0.0 0.0 0.00 0.00 0.00 52 1008.7
20260504014904 12 0 0.0 0.0 0.00 0.00 0.00 51 1008.7
20260504014605 12 0 0.0 0.0 0.00 0.00 0.00 52 1008.7
20260504014503 12 0 0.0 0.0 0.00 0.00 0.00 52 1008.7
20260504014405 12 0 0.0 0.0 0.00 0.00 0.00 51 1008.7
20260504014203 12 0 0.0 0.0 0.00 0.00 0.00 52 1008.7
20260504014103 12 0 0.0 0.0 0.00 0.00 0.00 52 1008.7
20260504014003 12 0 0.0 0.0 0.00 0.00 0.00 52 1008.7
20260504013903 12 0 0.0 0.0 0.00 0.00 0.00 52 1008.7
20260504013805 12 0 0.0 0.0 0.00 0.00 0.00 52 1008.7
20260504013703 12 0 0.0 0.0 0.00 0.00 0.00 52 1008.8
20260504013603 12 0 0.0 0.0 0.00 0.00 0.00 51 1008.7
20260504013503 12 0 0.0 0.0 0.00 0.00 0.00 52 1008.7
20260504013403 12 0 0.0 0.0 0.00 0.00 0.00 52 1008.7
20260504013303 12 0 0.0 0.0 0.00 0.00 0.00 52 1008.7
20260504013205 12 0 0.0 0.0 0.00 0.00 0.00 52 1008.7
20260504013104 12 0 0.0 0.0 0.00 0.00 0.00 52 1008.6
20260504013003 12 0 0.0 0.0 0.00 0.00 0.00 51 1008.6
20260504012905 12 0 0.0 0.0 0.00 0.00 0.00 51 1008.7
20260504012804 11 0 0.0 0.0 0.00 0.00 0.00 52 1008.7
20260504012717 11 0 0.0 0.0 0.00 0.00 0.00 51 1008.7
20260504012703 11 0 0.0 0.0 0.00 0.00 0.00 52 1008.7
20260504012605 11 0 0.0 0.0 0.00 0.00 0.00 52 1008.7
20260504012304 11 0 0.0 0.0 0.00 0.00 0.00 52 1008.7
20260504012203 11 0 0.0 0.0 0.00 0.00 0.00 52 1008.7
20260504012103 11 0 0.0 0.0 0.00 0.00 0.00 52 1008.7
20260504012003 11 0 0.0 0.0 0.00 0.00 0.00 51 1008.7
20260504011903 11 0 0.0 0.0 0.00 0.00 0.00 52 1008.8
20260504011803 11 0 0.0 0.0 0.00 0.00 0.00 52 1008.7
20260504011704 11 0 0.0 0.0 0.00 0.00 0.00 52 1008.7
20260504011603 11 0 0.0 0.0 0.00 0.00 0.00 53 1008.7
20260504011503 11 0 0.0 0.0 0.00 0.00 0.00 52 1008.7
20260504011403 11 0 0.0 0.0 0.00 0.00 0.00 52 1008.7
20260504011303 11 0 0.0 0.0 0.00 0.00 0.00 52 1008.7
20260504011103 11 0 0.0 0.0 0.00 0.00 0.00 52 1008.7
20260504011004 11 0 0.0 0.0 0.00 0.00 0.00 52 1008.7
20260504010904 11 0 0.0 0.0 0.00 0.00 0.00 52 1008.7
20260504010805 11 0 0.0 0.0 0.00 0.00 0.00 52 1008.7
20260504010704 11 0 0.0 0.0 0.00 0.00 0.00 52 1008.7
20260504010603 11 0 0.0 0.0 0.00 0.00 0.00 52 1008.7
20260504010504 11 0 0.0 0.0 0.00 0.00 0.00 52 1008.7
20260504010404 11 0 0.0 0.0 0.00 0.00 0.00 53 1008.7
20260504010303 11 0 0.0 0.0 0.00 0.00 0.00 53 1008.7
20260504010204 11 0 0.0 0.0 0.00 0.00 0.00 53 1008.7
20260504010105 11 0 0.0 0.0 0.00 0.00 0.00 54 1008.7
20260504005904 11 0 0.0 0.0 0.00 0.00 0.00 53 1008.6
20260504005805 11 0 0.0 0.0 0.00 0.00 0.00 53 1008.6
20260504005703 11 0 0.0 0.0 0.00 0.00 0.00 53 1008.6
20260504005603 11 0 0.0 0.0 0.00 0.00 0.00 54 1008.6
20260504005503 11 0 0.0 0.0 0.00 0.00 0.00 53 1008.7
20260504005404 11 0 0.0 0.0 0.00 0.00 0.00 54 1008.7
20260504005204 11 0 0.0 0.0 0.00 0.00 0.00 55 1008.7
20260504005103 11 0 0.0 0.0 0.00 0.00 0.00 55 1008.7
20260504005004 11 0 0.0 0.0 0.00 0.00 0.00 55 1008.7
20260504004903 11 0 0.0 0.0 0.00 0.00 0.00 55 1008.7
20260504004804 11 0 0.0 0.0 0.00 0.00 0.00 55 1008.7
20260504004704 11 0 0.0 0.0 0.00 0.00 0.00 55 1008.6
20260504004604 11 0 0.0 0.0 0.00 0.00 0.00 55 1008.6
20260504004505 11 0 0.0 0.0 0.00 0.00 0.00 55 1008.7
20260504004405 11 0 0.0 0.0 0.00 0.00 0.00 55 1008.7
20260504004305 11 0 0.0 0.0 0.00 0.00 0.00 55 1008.7
20260504004105 11 0 0.0 0.0 0.00 0.00 0.00 56 1008.7
20260504004009 11 0 0.0 0.0 0.00 0.00 0.00 56 1008.6
20260504003805 11 0 0.0 0.0 0.00 0.00 0.00 56 1008.7
20260504003704 11 0 0.0 0.0 0.00 0.00 0.00 57 1008.7
20260504003604 11 0 0.0 0.0 0.00 0.00 0.00 57 1008.7
20260504003503 11 0 0.0 0.0 0.00 0.00 0.00 57 1008.7
20260504003403 11 0 0.0 0.0 0.00 0.00 0.00 56 1008.6
20260504003303 11 0 0.0 0.0 0.00 0.00 0.00 58 1008.6
20260504003203 11 0 0.0 0.0 0.00 0.00 0.00 57 1008.7
20260504003104 11 0 0.0 0.0 0.00 0.00 0.00 58 1008.7
20260504003004 11 0 0.0 0.0 0.00 0.00 0.00 58 1008.7
20260504002903 11 0 0.0 0.0 0.00 0.00 0.00 58 1008.6
20260504002804 11 0 0.0 0.0 0.00 0.00 0.00 58 1008.6
20260504002704 11 0 0.0 0.0 0.00 0.00 0.00 58 1008.7
20260504002605 11 0 0.0 0.0 0.00 0.00 0.00 59 1008.7
20260504002505 10 0 0.0 0.0 0.00 0.00 0.00 59 1008.7
20260504002403 10 0 0.0 0.0 0.00 0.00 0.00 60 1008.7
20260504002204 10 0 0.0 0.0 0.00 0.00 0.00 59 1008.7
20260504002103 10 0 0.0 0.0 0.00 0.00 0.00 60 1008.7
20260504002005 10 0 0.0 0.0 0.00 0.00 0.00 60 1008.7
20260504001905 10 0 0.0 0.0 0.00 0.00 0.00 61 1008.7
20260504001803 10 0 0.0 0.0 0.00 0.00 0.00 61 1008.7
20260504001703 10 0 0.0 0.0 0.00 0.00 0.00 60 1008.8
20260504001617 10 0 0.0 0.0 0.00 0.00 0.00 60 1008.8
20260504001603 10 0 0.0 0.0 0.00 0.00 0.00 61 1008.7
20260504001504 10 0 0.0 0.0 0.00 0.00 0.00 61 1008.7
20260504001414 10 0 0.0 0.0 0.00 0.00 0.00 61 1008.8
20260504001103 10 0 0.0 0.0 0.00 0.00 0.00 62 1008.8
20260504001003 10 0 0.0 0.0 0.00 0.00 0.00 62 1008.8
20260504000903 10 0 0.0 0.0 0.00 0.00 0.00 62 1008.8
20260504000804 10 0 0.0 0.0 0.00 0.00 0.00 62 1008.8
20260504000703 10 0 0.0 0.0 0.00 0.00 0.00 63 1008.8
20260504000603 10 0 0.0 0.0 0.00 0.00 0.00 63 1008.8
20260504000505 10 0 0.0 0.0 0.00 0.00 0.00 62 1008.8
20260504000404 10 0 0.0 0.0 0.00 0.00 0.00 63 1008.8
20260504000304 10 0 0.0 0.0 0.00 0.00 0.00 64 1008.8
20260504000004 10 0 0.0 0.0 0.00 0.00 0.00 62 1008.8
20260503235905 10 0 0.0 0.0 0.00 0.00 0.00 63 1008.9
20260503235804 10 0 0.0 0.0 0.00 0.00 0.00 62 1009.0
20260503235705 10 0 0.0 0.0 0.00 0.00 0.00 63 1009.0
20260503235603 10 0 0.0 0.0 0.00 0.00 0.00 62 1008.9
20260503235503 10 0 0.0 0.0 0.00 0.00 0.00 63 1008.9
20260503235204 10 0 0.0 0.0 0.00 0.00 0.00 63 1009.0
20260503235103 10 0 0.0 0.0 0.00 0.00 0.00 63 1008.9
20260503235003 10 0 0.0 0.0 0.00 0.00 0.00 62 1009.0
20260503234904 10 0 0.0 0.0 0.00 0.00 0.00 62 1009.0
20260503234804 10 0 0.0 0.0 0.00 0.00 0.00 63 1009.0
20260503234704 10 0 0.0 0.0 0.00 0.00 0.00 64 1009.0
20260503234615 10 0 0.0 0.0 0.00 0.00 0.00 63 1009.0
20260503234504 10 0 0.0 0.0 0.00 0.00 0.00 62 1009.1
20260503234417 10 0 0.0 0.0 0.00 0.00 0.00 62 1009.1
20260503234305 10 0 0.0 0.0 0.00 0.00 0.00 61 1009.1
20260503234215 10 0 0.0 0.0 0.00 0.00 0.00 62 1009.1
20260503234106 10 0 0.0 0.0 0.00 0.00 0.00 62 1009.1
20260503233904 10 0 0.0 0.0 0.00 0.00 0.00 61 1009.0
20260503233805 10 0 0.0 0.0 0.00 0.00 0.00 62 1009.1
20260503233703 10 0 0.0 0.0 0.00 0.00 0.00 62 1009.2
20260503233604 10 0 0.0 0.0 0.00 0.00 0.00 61 1009.2
20260503233505 10 0 0.0 0.0 0.00 0.00 0.00 61 1009.0
20260503233404 10 0 0.0 0.0 0.00 0.00 0.00 61 1009.0
20260503233303 10 0 0.0 0.0 0.00 0.00 0.00 61 1009.0
20260503233204 10 0 0.0 0.0 0.00 0.00 0.00 61 1009.0
20260503233105 10 0 0.0 0.0 0.00 0.00 0.00 61 1009.0
20260503233005 10 0 0.0 0.0 0.00 0.00 0.00 61 1009.0
20260503232804 10 0 0.0 0.0 0.00 0.00 0.00 61 1008.9
20260503232703 10 0 0.0 0.0 0.00 0.00 0.00 61 1008.9
20260503232603 10 0 0.0 0.0 0.00 0.00 0.00 61 1008.9
20260503232504 11 0 0.0 0.0 0.00 0.00 0.00 61 1008.9
20260503232305 11 0 0.0 0.0 0.00 0.00 0.00 61 1009.0
20260503232203 11 0 0.0 0.0 0.00 0.00 0.00 60 1009.0
20260503232104 11 0 0.0 0.0 0.00 0.00 0.00 60 1009.0
20260503232005 11 0 0.0 0.0 0.00 0.00 0.00 60 1009.1
20260503231917 11 0 0.0 0.0 0.00 0.00 0.00 60 1009.1
20260503231905 11 0 0.0 0.0 0.00 0.00 0.00 60 1009.0
20260503231804 11 0 0.0 0.0 0.00 0.00 0.00 59 1009.0
20260503231604 11 0 0.0 0.0 0.00 0.00 0.00 59 1009.1
20260503231504 11 0 0.0 0.0 0.00 0.00 0.00 59 1009.0
20260503231404 11 0 0.0 0.0 0.00 0.00 0.00 58 1009.0
20260503231103 11 0 0.0 0.0 0.00 0.00 0.00 58 1009.0
20260503231005 11 0 0.0 0.0 0.00 0.00 0.00 58 1008.9
20260503230903 11 0 0.0 0.0 0.00 0.00 0.00 58 1009.0
20260503230804 11 0 0.0 0.0 0.00 0.00 0.00 58 1009.0
20260503230704 11 0 0.0 0.0 0.00 0.00 0.00 58 1009.0
20260503230603 11 0 0.0 0.0 0.00 0.00 0.00 58 1009.0
20260503230504 11 0 0.0 0.0 0.00 0.00 0.00 58 1008.9
20260503230304 11 0 0.0 0.0 0.00 0.00 0.00 56 1008.9
20260503230203 11 0 0.0 0.0 0.00 0.00 0.00 57 1008.9
20260503225905 11 0 0.0 0.0 0.00 0.00 0.00 56 1008.9
20260503225803 11 0 0.0 0.0 0.00 0.00 0.00 56 1008.9
20260503225704 11 0 0.0 0.0 0.00 0.00 0.00 56 1008.9
20260503225504 11 0 0.0 0.0 0.00 0.00 0.00 56 1008.9
20260503225405 11 0 0.0 0.0 0.00 0.00 0.00 56 1008.9
20260503225304 11 0 0.0 0.0 0.00 0.00 0.00 57 1008.9
20260503225204 11 0 0.0 0.0 0.00 0.00 0.00 57 1008.9
20260503225103 11 0 0.0 0.0 0.00 0.00 0.00 58 1008.9
20260503224905 11 0 0.0 0.0 0.00 0.00 0.00 58 1008.9
20260503224804 11 0 0.0 0.0 0.00 0.00 0.00 57 1009.0
20260503224705 11 0 0.0 0.0 0.00 0.00 0.00 58 1009.0
20260503224604 11 0 0.0 0.0 0.00 0.00 0.00 58 1009.0
20260503224404 11 0 0.0 0.0 0.00 0.00 0.00 58 1009.0
20260503224305 11 0 0.0 0.0 0.00 0.00 0.00 58 1009.0
20260503224103 11 0 0.0 0.0 0.00 0.00 0.00 58 1009.0
20260503224005 11 0 0.0 0.0 0.00 0.00 0.00 58 1009.0
20260503223903 11 0 0.0 0.0 0.00 0.00 0.00 58 1009.1
20260503223804 11 0 0.0 0.0 0.00 0.00 0.00 57 1009.1
20260503223704 11 0 0.0 0.0 0.00 0.00 0.00 57 1009.1
20260503223603 11 0 0.0 0.0 0.00 0.00 0.00 57 1009.2
20260503223504 11 0 0.0 0.0 0.00 0.00 0.00 57 1009.2
20260503223404 11 0 0.0 0.0 0.00 0.00 0.00 58 1009.2
20260503223303 11 0 0.0 0.0 0.00 0.00 0.00 57 1009.3
20260503223204 11 0 0.0 0.0 0.00 0.00 0.00 58 1009.3
20260503223005 11 0 0.0 0.0 0.00 0.00 0.00 57 1009.3
20260503222904 11 0 0.0 0.0 0.00 0.00 0.00 58 1009.3
20260503222804 11 0 0.0 0.0 0.00 0.00 0.00 57 1009.2
20260503222704 11 0 0.0 0.0 0.00 0.00 0.00 57 1009.2
20260503222605 11 0 0.0 0.0 0.00 0.00 0.00 58 1009.2
20260503222504 11 0 0.0 0.0 0.00 0.00 0.00 57 1009.2
20260503222405 11 0 0.0 0.0 0.00 0.00 0.00 58 1009.2
20260503222305 11 0 0.0 0.0 0.00 0.00 0.00 57 1009.1
20260503222203 11 0 0.0 0.0 0.00 0.00 0.00 56 1009.1
20260503222105 11 0 0.0 0.0 0.00 0.00 0.00 57 1009.0
20260503222004 11 0 0.0 0.0 0.00 0.00 0.00 56 1009.1
20260503221903 11 0 0.0 0.0 0.00 0.00 0.00 56 1009.1
20260503221804 11 0 0.0 0.0 0.00 0.00 0.00 56 1009.1
20260503221703 11 0 0.0 0.0 0.00 0.00 0.00 56 1009.1
20260503221604 11 0 0.0 0.0 0.00 0.00 0.00 56 1009.1
20260503221403 11 0 0.0 0.0 0.00 0.00 0.00 56 1009.2
20260503221304 11 0 0.0 0.0 0.00 0.00 0.00 56 1009.1
20260503221213 11 0 0.0 0.0 0.00 0.00 0.00 56 1009.1
20260503221204 11 0 0.0 0.0 0.00 0.00 0.00 56 1009.2
20260503221104 11 0 0.0 0.0 0.00 0.00 0.00 56 1009.2
20260503220904 11 0 0.0 0.0 0.00 0.00 0.00 56 1009.2
20260503220803 11 0 0.0 0.0 0.00 0.00 0.00 56 1009.2
20260503220716 11 0 0.0 0.0 0.00 0.00 0.00 56 1009.2
20260503220703 11 0 0.0 0.0 0.00 0.00 0.00 57 1009.1
20260503220604 11 0 0.0 0.0 0.00 0.00 0.00 56 1009.1
20260503220513 11 0 0.0 0.0 0.00 0.00 0.00 55 1009.0
20260503220403 11 0 0.0 0.0 0.00 0.00 0.00 56 1009.0
20260503220205 11 0 0.0 0.0 0.00 0.00 0.00 56 1009.0
20260503220105 11 0 0.0 0.0 0.00 0.00 0.00 56 1009.0
20260503220004 11 0 0.0 0.0 0.00 0.00 0.00 56 1009.0
20260503215904 11 0 0.0 0.0 0.00 0.00 0.00 56 1009.0
20260503215805 11 0 0.0 0.0 0.00 0.00 0.00 55 1009.0
20260503215703 11 0 0.0 0.0 0.00 0.00 0.00 56 1008.9
20260503215603 11 0 0.0 0.0 0.00 0.00 0.00 56 1008.9
20260503215403 11 0 0.0 0.0 0.00 0.00 0.00 54 1009.0
20260503215304 11 0 0.0 0.0 0.00 0.00 0.00 54 1009.0
20260503215204 11 0 0.0 0.0 0.00 0.00 0.00 54 1009.1
20260503215103 11 0 0.0 0.0 0.00 0.00 0.00 54 1009.1
20260503215003 11 0 0.0 0.0 0.00 0.00 0.00 55 1009.0
20260503214904 11 0 0.0 0.0 0.00 0.00 0.00 55 1008.9
20260503214804 11 0 0.0 0.0 0.00 0.00 0.00 54 1008.9
20260503214704 11 0 0.0 0.0 0.00 0.00 0.00 55 1008.9
20260503214603 11 0 0.0 0.0 0.00 0.00 0.00 54 1008.9
20260503214503 11 0 0.0 0.0 0.00 0.00 0.00 55 1009.0
20260503214414 11 0 0.0 0.0 0.00 0.00 0.00 55 1008.8
20260503214403 11 0 0.0 0.0 0.00 0.00 0.00 54 1008.8
20260503214303 11 0 0.0 0.0 0.00 0.00 0.00 55 1008.8
20260503214216 11 0 0.0 0.0 0.00 0.00 0.00 55 1008.9
20260503214104 11 0 0.0 0.0 0.00 0.00 0.00 54 1008.9
20260503213904 11 0 0.0 0.0 0.00 0.00 0.00 53 1008.9
20260503213804 11 0 0.0 0.0 0.00 0.00 0.00 54 1008.9
20260503213605 11 0 0.0 0.0 0.00 0.00 0.00 54 1008.7
20260503213504 11 0 0.0 0.0 0.00 0.00 0.00 54 1008.7
20260503213404 11 0 0.0 0.0 0.00 0.00 0.00 54 1008.7
20260503213305 11 0 0.0 0.0 0.00 0.00 0.00 55 1008.7
20260503213104 11 0 0.0 0.0 0.00 0.00 0.00 54 1008.9
20260503213003 11 0 0.0 0.0 0.00 0.00 0.00 54 1008.9
20260503212905 11 0 0.0 0.0 0.00 0.00 0.00 54 1008.8
20260503212804 11 0 0.0 0.0 0.00 0.00 0.00 54 1008.8
20260503212704 11 0 0.0 0.0 0.00 0.00 0.00 55 1008.8
20260503212603 11 0 0.0 0.0 0.00 0.00 0.00 56 1008.7
20260503212503 11 0 0.0 0.0 0.00 0.00 0.00 54 1008.7
20260503212404 11 0 0.0 0.0 0.00 0.00 0.00 55 1008.7
20260503212203 11 0 0.0 0.0 0.00 0.00 0.00 54 1008.9
20260503212104 11 0 0.0 0.0 0.00 0.00 0.00 54 1008.7
20260503212005 11 0 0.0 0.0 0.00 0.00 0.00 55 1008.7
20260503211904 11 0 0.0 0.0 0.00 0.00 0.00 55 1008.9
20260503211604 11 0 0.0 0.0 0.00 0.00 0.00 54 1008.9
20260503211505 11 0 0.0 0.0 0.00 0.00 0.00 55 1008.9
20260503211405 11 0 0.0 0.0 0.00 0.00 0.00 56 1009.0
20260503211303 11 0 0.0 0.0 0.00 0.00 0.00 56 1008.9
20260503211204 11 0 0.0 0.0 0.00 0.00 0.00 55 1008.9
20260503211103 11 0 0.0 0.0 0.00 0.00 0.00 55 1008.9
20260503211003 11 0 0.0 0.0 0.00 0.00 0.00 55 1008.8
20260503210903 11 0 0.0 0.0 0.00 0.00 0.00 55 1008.8
20260503210804 11 0 0.0 0.0 0.00 0.00 0.00 56 1008.9
20260503210704 11 0 0.0 0.0 0.00 0.00 0.00 55 1008.9
20260503210604 11 0 0.0 0.0 0.00 0.00 0.00 56 1008.9
20260503210504 11 0 0.0 0.0 0.00 0.00 0.00 56 1008.8
20260503210412 11 0 0.0 0.0 0.00 0.00 0.00 55 1008.8
20260503210404 11 0 0.0 0.0 0.00 0.00 0.00 55 1008.8
20260503210303 11 0 0.0 0.0 0.00 0.00 0.00 55 1008.9
20260503210005 11 0 0.0 0.0 0.00 0.00 0.00 55 1008.9
20260503205903 11 0 0.0 0.0 0.00 0.00 0.00 55 1008.9
20260503205805 11 0 0.0 0.0 0.00 0.00 0.00 56 1008.9
20260503205717 11 0 0.0 0.0 0.00 0.00 0.00 56 1008.9
20260503205705 11 0 0.0 0.0 0.00 0.00 0.00 55 1008.9
20260503205604 11 0 0.0 0.0 0.00 0.00 0.00 55 1009.0
20260503205405 11 0 0.0 0.0 0.00 0.00 0.00 55 1008.9
20260503205305 11 0 0.0 0.0 0.00 0.00 0.00 55 1008.9
20260503205203 11 0 0.0 0.0 0.00 0.00 0.00 56 1009.0